Location: Livorno
(43.5500°N, 10.3170°E)
Time: 00:56:09
(UTC+02:00)

ISS - Visible Passes

Search period start: 23 October 2020 00:00
Search period end: 01 November 2020 23:00
Orbit: 417 x 420 km, 51.6° (Epoch: 22 October)

Date Brightness Start Highest point End Pass type
(mag) Time Alt. Az. Time Alt. Az. Time Alt. Az.
23 Oct -2.8 06:50:59 10° SW 06:54:14 49° SE 06:57:30 10° ENE visible
24 Oct -2.0 06:04:39 17° S 06:06:36 29° SE 06:09:34 10° ENE visible
25 Oct -1.1 04:19:31 18° ESE 04:19:31 18° ESE 04:21:23 10° E visible
25 Oct -3.7 05:52:30 12° WSW 05:55:30 64° NNW 05:58:50 10° NE visible
26 Oct -3.8 05:07:11 58° SW 05:07:45 81° SE 05:11:06 10° ENE visible
27 Oct -1.4 04:21:44 24° ENE 04:21:44 24° ENE 04:23:19 10° ENE visible
27 Oct -2.8 05:54:42 16° WNW 05:56:57 32° NNW 06:00:02 10° NE visible
28 Oct -3.2 05:09:09 44° NNW 05:09:09 44° NNW 05:12:21 10° NE visible
29 Oct -1.2 04:23:31 19° NE 04:23:31 19° NE 04:24:39 10° NE visible
29 Oct -2.1 05:56:29 14° WNW 05:58:33 22° N 06:01:17 10° NE visible
30 Oct -2.3 05:10:47 26° N 05:10:47 26° N 05:13:32 10° NE visible
31 Oct -0.9 04:25:03 15° NE 04:25:03 15° NE 04:25:50 10° NE visible
31 Oct -1.9 05:58:00 12° NW 06:00:14 20° N 06:02:48 10° NE visible
01 Nov -1.9 05:12:14 21° N 05:12:16 21° N 05:14:54 10° NE visible
